Time,TemperatureF,DewpointF,PressureIn,WindDirection,WindDirectionDegrees,WindSpeedMPH,WindSpeedGustMPH,Humidity,HourlyPrecipIn,Conditions,Clouds,dailyrainin,SoftwareType,DateUTC
2013-04-10 00:00:00,45.1,27.6,30.21,WNW,292,6.0,6.0,50,0.00,,,0.00,Weather View 32 v70,2013-04-10 07:00:00,
2013-04-10 00:02:00,45.1,27.6,30.21,WNW,303,4.0,6.0,50,0.00,,,0.00,Weather View 32 v70,2013-04-10 07:02:00,
2013-04-10 00:07:00,45.3,27.7,30.21,WNW,287,5.0,8.0,50,0.00,,,0.00,Weather View 32 v70,2013-04-10 07:07:00,
2013-04-10 00:12:00,45.5,27.9,30.21,WNW,298,3.0,8.0,50,0.00,,,0.00,Weather View 32 v70,2013-04-10 07:12:00,
2013-04-10 00:17:00,45.7,27.6,30.21,West,272,4.0,8.0,49,0.00,,,0.00,Weather View 32 v70,2013-04-10 07:17:00,
2013-04-10 00:22:00,45.9,27.8,30.21,West,277,4.0,8.0,49,0.00,,,0.00,Weather View 32 v70,2013-04-10 07:22:00,
2013-04-10 00:27:00,45.9,27.8,30.21,West,266,5.0,8.0,49,0.00,,,0.00,Weather View 32 v70,2013-04-10 07:27:00,
2013-04-10 00:32:00,46.0,27.9,30.21,WNW,283,6.0,8.0,49,0.00,,,0.00,Weather View 32 v70,2013-04-10 07:32:00,
2013-04-10 00:37:00,46.2,28.1,30.21,West,260,3.0,8.0,49,0.00,,,0.00,Weather View 32 v70,2013-04-10 07:37:00,
2013-04-10 00:42:00,46.2,28.1,30.21,West,278,3.0,8.0,49,0.00,,,0.00,Weather View 32 v70,2013-04-10 07:42:00,
2013-04-10 00:47:00,46.4,27.7,30.21,West,261,3.0,8.0,48,0.00,,,0.00,Weather View 32 v70,2013-04-10 07:47:00,
2013-04-10 00:52:00,46.6,27.4,30.21,West,264,6.0,8.0,47,0.00,,,0.00,Weather View 32 v70,2013-04-10 07:52:00,
2013-04-10 00:57:00,46.8,27.6,30.21,West,262,3.0,8.0,47,0.00,,,0.00,Weather View 32 v70,2013-04-10 07:57:00,
2013-04-10 01:00:00,46.8,27.6,30.21,West,264,3.0,8.0,47,0.00,,,0.00,Weather View 32 v70,2013-04-10 08:00:00,
2013-04-10 01:02:00,46.8,27.6,30.21,West,263,3.0,8.0,47,0.00,,,0.00,Weather View 32 v70,2013-04-10 08:02:00,
2013-04-10 01:07:00,46.8,27.6,30.21,WNW,295,4.0,11.0,47,0.00,,,0.00,Weather View 32 v70,2013-04-10 08:07:00,
2013-04-10 01:12:00,46.8,27.0,30.21,West,276,4.0,11.0,46,0.00,,,0.00,Weather View 32 v70,2013-04-10 08:12:00,
2013-04-10 01:17:00,46.6,26.9,30.21,West,259,5.0,11.0,46,0.00,,,0.00,Weather View 32 v70,2013-04-10 08:17:00,
2013-04-10 01:22:00,46.4,26.7,30.21,SW,233,3.0,11.0,46,0.00,,,0.00,Weather View 32 v70,2013-04-10 08:22:00,
2013-04-10 01:27:00,46.2,27.1,30.21,West,279,4.0,11.0,47,0.00,,,0.00,Weather View 32 v70,2013-04-10 08:27:00,
2013-04-10 01:32:00,46.0,26.9,30.21,West,268,3.0,11.0,47,0.00,,,0.00,Weather View 32 v70,2013-04-10 08:32:00,
2013-04-10 01:37:00,45.9,26.7,30.21,WSW,252,6.0,11.0,47,0.00,,,0.00,Weather View 32 v70,2013-04-10 08:37:00,
2013-04-10 01:42:00,45.9,26.7,30.21,West,265,3.0,11.0,47,0.00,,,0.00,Weather View 32 v70,2013-04-10 08:42:00,
2013-04-10 01:47:00,45.9,27.2,30.21,WNW,295,3.0,11.0,48,0.00,,,0.00,Weather View 32 v70,2013-04-10 08:47:00,
2013-04-10 01:52:00,45.9,27.2,30.21,SW,226,5.0,11.0,48,0.00,,,0.00,Weather View 32 v70,2013-04-10 08:52:00,
2013-04-10 01:57:00,45.9,27.2,30.21,SW,230,5.0,11.0,48,0.00,,,0.00,Weather View 32 v70,2013-04-10 08:57:00,
2013-04-10 02:00:00,45.7,27.1,30.21,WSW,255,3.0,11.0,48,0.00,,,0.00,Weather View 32 v70,2013-04-10 09:00:00,
2013-04-10 02:02:00,45.5,26.9,30.21,WSW,252,3.0,11.0,48,0.00,,,0.00,Weather View 32 v70,2013-04-10 09:02:00,
2013-04-10 02:07:00,45.5,26.9,30.21,WNW,295,4.0,11.0,48,0.00,,,0.00,Weather View 32 v70,2013-04-10 09:07:00,
2013-04-10 02:12:00,45.3,26.8,30.21,WSW,248,4.0,11.0,48,0.00,,,0.00,Weather View 32 v70,2013-04-10 09:12:00,
2013-04-10 02:17:00,45.3,26.8,30.21,WSW,246,5.0,11.0,48,0.00,,,0.00,Weather View 32 v70,2013-04-10 09:17:00,
2013-04-10 02:22:00,45.3,26.8,30.21,WSW,244,4.0,11.0,48,0.00,,,0.00,Weather View 32 v70,2013-04-10 09:22:00,
2013-04-10 02:27:00,45.3,26.8,30.21,WSW,254,4.0,11.0,48,0.00,,,0.00,Weather View 32 v70,2013-04-10 09:27:00,
2013-04-10 02:32:00,45.3,26.8,30.18,West,261,4.0,10.0,48,0.00,,,0.00,Weather View 32 v70,2013-04-10 09:32:00,
2013-04-10 02:37:00,45.1,26.6,30.18,West,279,6.0,10.0,48,0.00,,,0.00,Weather View 32 v70,2013-04-10 09:37:00,
2013-04-10 02:42:00,45.0,26.9,30.18,West,274,8.0,10.0,49,0.00,,,0.00,Weather View 32 v70,2013-04-10 09:42:00,
2013-04-10 02:47:00,45.0,26.9,30.18,West,273,5.0,10.0,49,0.00,,,0.00,Weather View 32 v70,2013-04-10 09:47:00,
2013-04-10 02:52:00,44.8,26.8,30.18,WSW,245,4.0,10.0,49,0.00,,,0.00,Weather View 32 v70,2013-04-10 09:52:00,
2013-04-10 02:57:00,45.0,26.9,30.18,West,281,5.0,10.0,49,0.00,,,0.00,Weather View 32 v70,2013-04-10 09:57:00,
2013-04-10 03:00:00,45.0,26.9,30.18,West,270,4.0,10.0,49,0.00,,,0.00,Weather View 32 v70,2013-04-10 10:00:00,
2013-04-10 03:02:00,45.0,26.9,30.18,West,267,4.0,10.0,49,0.00,,,0.00,Weather View 32 v70,2013-04-10 10:02:00,
2013-04-10 03:07:00,45.1,27.1,30.18,West,265,6.0,10.0,49,0.00,,,0.00,Weather View 32 v70,2013-04-10 10:07:00,
2013-04-10 03:12:00,45.1,27.1,30.18,West,279,5.0,10.0,49,0.00,,,0.00,Weather View 32 v70,2013-04-10 10:12:00,
2013-04-10 03:18:00,45.1,27.1,30.18,West,266,4.0,11.0,49,0.00,,,0.00,Weather View 32 v70,2013-04-10 10:18:00,
2013-04-10 03:23:00,45.1,27.1,30.18,WNW,285,4.0,11.0,49,0.00,,,0.00,Weather View 32 v70,2013-04-10 10:23:00,
2013-04-10 03:28:00,45.1,27.1,30.18,West,279,5.0,11.0,49,0.00,,,0.00,Weather View 32 v70,2013-04-10 10:28:00,
2013-04-10 03:33:00,45.0,26.9,30.18,West,270,0.0,11.0,49,0.00,,,0.00,Weather View 32 v70,2013-04-10 10:33:00,
2013-04-10 03:38:00,44.8,27.2,30.18,NW,326,0.0,11.0,50,0.00,,,0.00,Weather View 32 v70,2013-04-10 10:38:00,
2013-04-10 03:43:00,44.6,27.1,30.18,NW,312,0.0,11.0,50,0.00,,,0.00,Weather View 32 v70,2013-04-10 10:43:00,
2013-04-10 03:48:00,44.4,27.4,30.18,NW,312,0.0,11.0,51,0.00,,,0.00,Weather View 32 v70,2013-04-10 10:48:00,
2013-04-10 03:53:00,44.2,27.2,30.18,NW,312,0.0,11.0,51,0.00,,,0.00,Weather View 32 v70,2013-04-10 10:53:00,
2013-04-10 03:58:00,44.1,28.0,30.18,WSW,255,0.0,11.0,53,0.00,,,0.00,Weather View 32 v70,2013-04-10 10:58:00,
2013-04-10 04:00:00,44.1,28.0,30.18,WSW,255,0.0,11.0,53,0.00,,,0.00,Weather View 32 v70,2013-04-10 11:00:00,
2013-04-10 04:03:00,44.1,28.0,30.18,WSW,255,0.0,11.0,53,0.00,,,0.00,Weather View 32 v70,2013-04-10 11:03:00,
2013-04-10 04:08:00,44.2,28.2,30.18,WSW,247,4.0,11.0,53,0.00,,,0.00,Weather View 32 v70,2013-04-10 11:08:00,
2013-04-10 04:13:00,44.6,28.0,30.18,WSW,247,4.0,11.0,52,0.00,,,0.00,Weather View 32 v70,2013-04-10 11:13:00,
2013-04-10 04:18:00,45.0,28.4,30.18,WSW,253,3.0,7.0,52,0.00,,,0.00,Weather View 32 v70,2013-04-10 11:18:00,
2013-04-10 04:23:00,45.0,28.4,30.18,WSW,247,4.0,6.0,52,0.00,,,0.00,Weather View 32 v70,2013-04-10 11:23:00,
2013-04-10 04:28:00,45.0,27.9,30.18,West,275,3.0,5.0,51,0.00,,,0.00,Weather View 32 v70,2013-04-10 11:28:00,
2013-04-10 04:33:00,44.6,28.0,30.18,West,265,3.0,5.0,52,0.00,,,0.00,Weather View 32 v70,2013-04-10 11:33:00,
2013-04-10 04:38:00,44.6,28.5,30.18,West,265,3.0,5.0,53,0.00,,,0.00,Weather View 32 v70,2013-04-10 11:38:00,
2013-04-10 04:43:00,44.8,28.7,30.18,WSW,248,3.0,5.0,53,0.00,,,0.00,Weather View 32 v70,2013-04-10 11:43:00,
2013-04-10 04:48:00,44.8,28.7,30.18,WSW,248,3.0,5.0,53,0.00,,,0.00,Weather View 32 v70,2013-04-10 11:48:00,
2013-04-10 04:53:00,44.6,27.6,30.18,SW,224,3.0,5.0,51,0.00,,,0.00,Weather View 32 v70,2013-04-10 11:53:00,
2013-04-10 04:58:00,43.7,27.2,30.18,SW,224,3.0,5.0,52,0.00,,,0.00,Weather View 32 v70,2013-04-10 11:58:00,
2013-04-10 05:03:00,43.0,26.5,30.18,SW,224,3.0,5.0,52,0.00,,,0.00,Weather View 32 v70,2013-04-10 12:03:00,
2013-04-10 05:08:00,42.3,26.3,30.18,SW,229,4.0,5.0,53,0.00,,,0.00,Weather View 32 v70,2013-04-10 12:08:00,
2013-04-10 05:13:00,41.9,26.0,30.18,SW,232,3.0,5.0,53,0.00,,,0.00,Weather View 32 v70,2013-04-10 12:13:00,
2013-04-10 05:18:00,41.5,25.2,30.18,SW,226,4.0,6.0,52,0.00,,,0.00,Weather View 32 v70,2013-04-10 12:18:00,
2013-04-10 05:23:00,41.5,25.7,30.18,WSW,253,3.0,6.0,53,0.00,,,0.00,Weather View 32 v70,2013-04-10 12:23:00,
2013-04-10 05:28:00,41.2,24.9,30.18,SW,228,0.0,6.0,52,0.00,,,0.00,Weather View 32 v70,2013-04-10 12:28:00,
2013-04-10 05:33:00,41.2,24.9,30.18,SW,224,5.0,6.0,52,0.00,,,0.00,Weather View 32 v70,2013-04-10 12:33:00,
2013-04-10 05:38:00,41.2,24.9,30.18,SW,224,3.0,6.0,52,0.00,,,0.00,Weather View 32 v70,2013-04-10 12:38:00,
2013-04-10 05:43:00,41.2,24.9,30.18,SW,225,4.0,6.0,52,0.00,,,0.00,Weather View 32 v70,2013-04-10 12:43:00,
2013-04-10 05:48:00,41.2,24.9,30.15,SW,224,4.0,6.0,52,0.00,,,0.00,Weather View 32 v70,2013-04-10 12:48:00,
2013-04-10 05:53:00,41.2,24.9,30.15,SW,224,4.0,6.0,52,0.00,,,0.00,Weather View 32 v70,2013-04-10 12:53:00,
2013-04-10 05:58:00,41.2,24.9,30.15,SW,225,5.0,6.0,52,0.00,,,0.00,Weather View 32 v70,2013-04-10 12:58:00,
2013-04-10 06:03:00,41.2,24.9,30.15,SW,224,6.0,6.0,52,0.00,,,0.00,Weather View 32 v70,2013-04-10 13:03:00,
2013-04-10 06:08:00,41.2,24.9,30.15,SW,224,4.0,6.0,52,0.00,,,0.00,Weather View 32 v70,2013-04-10 13:08:00,
2013-04-10 06:13:00,41.2,24.9,30.15,SW,226,2.0,6.0,52,0.00,,,0.00,Weather View 32 v70,2013-04-10 13:13:00,
2013-04-10 06:18:00,41.0,24.7,30.15,SW,225,0.0,6.0,52,0.00,,,0.00,Weather View 32 v70,2013-04-10 13:18:00,
2013-04-10 06:23:00,41.0,24.7,30.15,SW,226,2.0,6.0,52,0.00,,,0.00,Weather View 32 v70,2013-04-10 13:23:00,
2013-04-10 06:28:00,40.8,25.0,30.15,SW,224,3.0,6.0,53,0.00,,,0.00,Weather View 32 v70,2013-04-10 13:28:00,
2013-04-10 06:33:00,40.6,24.8,30.15,SW,224,0.0,6.0,53,0.00,,,0.00,Weather View 32 v70,2013-04-10 13:33:00,
2013-04-10 06:38:00,40.6,25.3,30.15,SW,224,0.0,6.0,54,0.00,,,0.00,Weather View 32 v70,2013-04-10 13:38:00,
2013-04-10 06:43:00,40.6,25.3,30.15,WSW,240,3.0,6.0,54,0.00,,,0.00,Weather View 32 v70,2013-04-10 13:43:00,
2013-04-10 06:48:00,40.6,25.3,30.15,WSW,240,3.0,6.0,54,0.00,,,0.00,Weather View 32 v70,2013-04-10 13:48:00,
2013-04-10 06:53:00,40.5,25.5,30.15,WSW,241,0.0,6.0,55,0.00,,,0.00,Weather View 32 v70,2013-04-10 13:53:00,
2013-04-10 06:58:00,40.3,25.4,30.15,WSW,240,0.0,6.0,55,0.00,,,0.00,Weather View 32 v70,2013-04-10 13:58:00,
2013-04-10 07:03:00,40.3,25.4,30.15,WSW,240,0.0,6.0,55,0.00,,,0.00,Weather View 32 v70,2013-04-10 14:03:00,
2013-04-10 07:08:00,40.1,25.6,30.15,WSW,240,0.0,5.0,56,0.00,,,0.00,Weather View 32 v70,2013-04-10 14:08:00,
2013-04-10 07:13:00,39.9,25.5,30.15,WSW,241,0.0,4.0,56,0.00,,,0.00,Weather View 32 v70,2013-04-10 14:13:00,
2013-04-10 07:19:00,39.9,25.5,30.15,WSW,240,0.0,4.0,56,0.00,,,0.00,Weather View 32 v70,2013-04-10 14:19:00,
2013-04-10 07:24:00,39.9,25.9,30.15,WSW,240,0.0,4.0,57,0.00,,,0.00,Weather View 32 v70,2013-04-10 14:24:00,
2013-04-10 07:29:00,39.9,25.9,30.15,WSW,240,0.0,4.0,57,0.00,,,0.00,Weather View 32 v70,2013-04-10 14:29:00,
2013-04-10 07:34:00,39.9,26.3,30.15,SW,230,0.0,4.0,58,0.00,,,0.00,Weather View 32 v70,2013-04-10 14:34:00,
2013-04-10 07:39:00,39.9,26.3,30.15,SW,230,0.0,4.0,58,0.00,,,0.00,Weather View 32 v70,2013-04-10 14:39:00,
2013-04-10 07:44:00,40.3,26.7,30.15,SW,230,0.0,4.0,58,0.00,,,0.00,Weather View 32 v70,2013-04-10 14:44:00,
2013-04-10 07:49:00,40.5,26.8,30.15,SW,231,0.0,3.0,58,0.00,,,0.00,Weather View 32 v70,2013-04-10 14:49:00,
2013-04-10 07:54:00,40.6,27.0,30.15,SW,231,0.0,0.0,58,0.00,,,0.00,Weather View 32 v70,2013-04-10 14:54:00,
2013-04-10 07:59:00,40.8,28.0,30.15,SW,231,0.0,0.0,60,0.00,,,0.00,Weather View 32 v70,2013-04-10 14:59:00,
2013-04-10 08:04:00,41.4,28.1,30.15,SW,231,0.0,0.0,59,0.00,,,0.00,Weather View 32 v70,2013-04-10 15:04:00,
2013-04-10 08:09:00,41.5,28.3,30.15,SW,228,0.0,0.0,59,0.00,,,0.00,Weather View 32 v70,2013-04-10 15:09:00,
2013-04-10 08:14:00,42.1,29.6,30.15,SW,224,3.0,4.0,61,0.00,,,0.00,Weather View 32 v70,2013-04-10 15:14:00,
2013-04-10 08:19:00,42.4,29.5,30.15,SW,224,0.0,4.0,60,0.00,,,0.00,Weather View 32 v70,2013-04-10 15:19:00,
2013-04-10 08:24:00,43.0,30.0,30.15,SW,224,0.0,4.0,60,0.00,,,0.00,Weather View 32 v70,2013-04-10 15:24:00,
2013-04-10 08:29:00,43.5,30.1,30.15,SW,224,0.0,4.0,59,0.00,,,0.00,Weather View 32 v70,2013-04-10 15:29:00,
2013-04-10 08:34:00,43.9,30.5,30.15,SW,224,0.0,4.0,59,0.00,,,0.00,Weather View 32 v70,2013-04-10 15:34:00,
2013-04-10 08:39:00,44.4,31.0,30.15,SW,224,3.0,4.0,59,0.00,,,0.00,Weather View 32 v70,2013-04-10 15:39:00,
2013-04-10 08:44:00,45.0,31.5,30.15,SW,224,0.0,4.0,59,0.00,,,0.00,Weather View 32 v70,2013-04-10 15:44:00,
2013-04-10 08:49:00,45.1,31.6,30.12,SW,224,0.0,4.0,59,0.00,,,0.00,Weather View 32 v70,2013-04-10 15:49:00,
2013-04-10 08:54:00,45.9,33.2,30.12,North,349,0.0,5.0,61,0.00,,,0.00,Weather View 32 v70,2013-04-10 15:54:00,
2013-04-10 08:59:00,46.9,34.2,30.12,North,353,7.0,7.0,61,0.00,,,0.00,Weather View 32 v70,2013-04-10 15:59:00,
2013-04-10 09:04:00,48.7,35.0,30.12,North,353,4.0,9.0,59,0.00,,,0.00,Weather View 32 v70,2013-04-10 16:04:00,
2013-04-10 09:09:00,50.5,34.0,30.12,WNW,303,9.0,12.0,53,0.00,,,0.00,Weather View 32 v70,2013-04-10 16:09:00,
2013-04-10 09:14:00,51.6,33.6,30.12,North,7,11.0,13.0,50,0.00,,,0.00,Weather View 32 v70,2013-04-10 16:14:00,
2013-04-10 09:19:00,52.3,33.7,30.12,WNW,284,8.0,15.0,49,0.00,,,0.00,Weather View 32 v70,2013-04-10 16:19:00,
2013-04-10 09:24:00,52.7,33.5,30.12,WNW,301,6.0,15.0,48,0.00,,,0.00,Weather View 32 v70,2013-04-10 16:24:00,
2013-04-10 09:29:00,53.1,33.9,30.12,WNW,292,10.0,15.0,48,0.00,,,0.00,Weather View 32 v70,2013-04-10 16:29:00,
2013-04-10 09:34:00,53.2,33.5,30.12,NW,318,12.0,15.0,47,0.00,,,0.00,Weather View 32 v70,2013-04-10 16:34:00,
2013-04-10 09:39:00,53.8,33.4,30.12,WNW,303,6.0,15.0,46,0.00,,,0.00,Weather View 32 v70,2013-04-10 16:39:00,
2013-04-10 09:44:00,54.1,33.8,30.12,North,9,4.0,15.0,46,0.00,,,0.00,Weather View 32 v70,2013-04-10 16:44:00,
2013-04-10 09:49:00,54.5,34.1,30.12,West,278,4.0,15.0,46,0.00,,,0.00,Weather View 32 v70,2013-04-10 16:49:00,
2013-04-10 09:54:00,54.5,34.1,30.12,NW,309,3.0,15.0,46,0.00,,,0.00,Weather View 32 v70,2013-04-10 16:54:00,
2013-04-10 09:59:00,54.7,34.3,30.12,West,260,6.0,15.0,46,0.00,,,0.00,Weather View 32 v70,2013-04-10 16:59:00,
2013-04-10 10:04:00,54.7,34.3,30.12,SW,233,4.0,15.0,46,0.00,,,0.00,Weather View 32 v70,2013-04-10 17:04:00,
2013-04-10 10:09:00,54.7,34.3,30.12,West,274,6.0,15.0,46,0.00,,,0.00,Weather View 32 v70,2013-04-10 17:09:00,
2013-04-10 10:14:00,55.0,35.1,30.12,WSW,255,4.0,15.0,47,0.00,,,0.00,Weather View 32 v70,2013-04-10 17:14:00,
2013-04-10 10:19:00,55.4,34.4,30.12,West,273,2.0,15.0,45,0.00,,,0.00,Weather View 32 v70,2013-04-10 17:19:00,
2013-04-10 10:24:00,56.1,35.0,30.12,NW,326,6.0,15.0,45,0.00,,,0.00,Weather View 32 v70,2013-04-10 17:24:00,
2013-04-10 10:29:00,57.0,35.3,30.12,North,5,10.0,15.0,44,0.00,,,0.00,Weather View 32 v70,2013-04-10 17:29:00,
2013-04-10 10:34:00,57.7,34.8,30.12,NW,326,12.0,15.0,42,0.00,,,0.00,Weather View 32 v70,2013-04-10 17:34:00,
2013-04-10 10:39:00,58.1,35.1,30.12,North,357,9.0,17.0,42,0.00,,,0.00,Weather View 32 v70,2013-04-10 17:39:00,
2013-04-10 10:44:00,58.5,35.4,30.12,West,276,8.0,17.0,42,0.00,,,0.00,Weather View 32 v70,2013-04-10 17:44:00,
2013-04-10 10:49:00,59.5,35.1,30.09,NNW,335,8.0,17.0,40,0.00,,,0.00,Weather View 32 v70,2013-04-10 17:49:00,
2013-04-10 10:54:00,60.3,35.8,30.09,NNW,342,6.0,17.0,40,0.00,,,0.00,Weather View 32 v70,2013-04-10 17:54:00,
2013-04-10 10:59:00,60.3,34.5,30.09,North,0,17.0,24.0,38,0.00,,,0.00,Weather View 32 v70,2013-04-10 17:59:00,
2013-04-10 11:04:00,60.3,34.5,30.09,North,1,25.0,25.0,38,0.00,,,0.00,Weather View 32 v70,2013-04-10 18:04:00,
2013-04-10 11:09:00,60.3,34.5,30.09,NNW,339,22.0,25.0,38,0.00,,,0.00,Weather View 32 v70,2013-04-10 18:09:00,
2013-04-10 11:14:00,60.8,35.0,30.09,North,357,9.0,25.0,38,0.00,,,0.00,Weather View 32 v70,2013-04-10 18:14:00,
2013-04-10 11:19:00,61.3,35.5,30.09,WNW,293,13.0,25.0,38,0.00,,,0.00,Weather View 32 v70,2013-04-10 18:19:00,
2013-04-10 11:24:00,61.0,34.5,30.09,North,349,26.0,29.0,37,0.00,,,0.00,Weather View 32 v70,2013-04-10 18:24:00,
2013-04-10 11:29:00,61.0,34.5,30.09,NW,322,21.0,29.0,37,0.00,,,0.00,Weather View 32 v70,2013-04-10 18:29:00,
2013-04-10 11:34:00,60.8,34.3,30.09,NW,313,11.0,29.0,37,0.00,,,0.00,Weather View 32 v70,2013-04-10 18:34:00,
2013-04-10 11:39:00,61.0,34.5,30.09,North,357,9.0,29.0,37,0.00,,,0.00,Weather View 32 v70,2013-04-10 18:39:00,
2013-04-10 11:44:00,60.6,34.1,30.09,NW,312,11.0,29.0,37,0.00,,,0.00,Weather View 32 v70,2013-04-10 18:44:00,
2013-04-10 11:49:00,60.8,34.3,30.09,NNW,346,19.0,29.0,37,0.00,,,0.00,Weather View 32 v70,2013-04-10 18:49:00,
2013-04-10 11:54:00,61.5,34.9,30.09,NW,324,14.0,29.0,37,0.00,,,0.00,Weather View 32 v70,2013-04-10 18:54:00,
2013-04-10 11:59:00,61.0,34.5,30.09,NNE,13,14.0,29.0,37,0.00,,,0.00,Weather View 32 v70,2013-04-10 18:59:00,
2013-04-10 12:04:00,60.1,33.7,30.09,WNW,295,8.0,29.0,37,0.00,,,0.00,Weather View 32 v70,2013-04-10 19:04:00,
2013-04-10 12:09:00,59.7,34.0,30.09,NW,323,11.0,29.0,38,0.00,,,0.00,Weather View 32 v70,2013-04-10 19:09:00,
2013-04-10 12:14:00,59.5,33.9,30.09,NW,319,7.0,29.0,38,0.00,,,0.00,Weather View 32 v70,2013-04-10 19:14:00,
2013-04-10 12:19:00,59.0,33.4,30.09,North,353,12.0,29.0,38,0.00,,,0.00,Weather View 32 v70,2013-04-10 19:19:00,
2013-04-10 12:24:00,58.6,33.1,30.09,NW,312,15.0,26.0,38,0.00,,,0.00,Weather View 32 v70,2013-04-10 19:24:00,
2013-04-10 12:29:00,58.3,33.4,30.09,North,0,15.0,25.0,39,0.00,,,0.00,Weather View 32 v70,2013-04-10 19:29:00,
2013-04-10 12:35:00,58.5,34.2,30.09,North,11,8.0,25.0,40,0.00,,,0.00,Weather View 32 v70,2013-04-10 19:35:00,
2013-04-10 12:40:00,59.0,34.0,30.09,NNE,25,9.0,25.0,39,0.00,,,0.00,Weather View 32 v70,2013-04-10 19:40:00,
2013-04-10 12:45:00,59.7,34.0,30.09,NNW,335,8.0,25.0,38,0.00,,,0.00,Weather View 32 v70,2013-04-10 19:45:00,
2013-04-10 12:50:00,59.4,33.7,30.09,North,9,8.0,25.0,38,0.00,,,0.00,Weather View 32 v70,2013-04-10 19:50:00,
2013-04-10 12:55:00,59.4,33.7,30.09,NNW,346,5.0,25.0,38,0.00,,,0.00,Weather View 32 v70,2013-04-10 19:55:00,
2013-04-10 13:00:00,59.5,33.9,30.09,North,7,10.0,22.0,38,0.00,,,0.00,Weather View 32 v70,2013-04-10 20:00:00,
2013-04-10 13:05:00,59.4,33.0,30.09,NE,52,8.0,22.0,37,0.00,,,0.00,Weather View 32 v70,2013-04-10 20:05:00,
2013-04-10 13:10:00,59.2,33.5,30.09,ENE,57,11.0,22.0,38,0.00,,,0.00,Weather View 32 v70,2013-04-10 20:10:00,
2013-04-10 13:15:00,59.0,32.7,30.09,ENE,78,6.0,22.0,37,0.00,,,0.00,Weather View 32 v70,2013-04-10 20:15:00,
2013-04-10 13:20:00,58.8,32.5,30.09,NE,54,4.0,22.0,37,0.00,,,0.00,Weather View 32 v70,2013-04-10 20:20:00,
2013-04-10 13:25:00,59.2,32.9,30.09,NNE,18,10.0,22.0,37,0.00,,,0.00,Weather View 32 v70,2013-04-10 20:25:00,
2013-04-10 13:30:00,59.7,32.7,30.09,NE,44,12.0,19.0,36,0.00,,,0.00,Weather View 32 v70,2013-04-10 20:30:00,
2013-04-10 13:35:00,59.7,32.7,30.09,ENE,58,8.0,17.0,36,0.00,,,0.00,Weather View 32 v70,2013-04-10 20:35:00,
2013-04-10 13:40:00,59.5,32.5,30.09,NE,46,9.0,17.0,36,0.00,,,0.00,Weather View 32 v70,2013-04-10 20:40:00,
2013-04-10 13:45:00,59.7,32.7,30.09,NNE,16,8.0,17.0,36,0.00,,,0.00,Weather View 32 v70,2013-04-10 20:45:00,
2013-04-10 13:50:00,59.9,32.8,30.09,NE,51,9.0,15.0,36,0.00,,,0.00,Weather View 32 v70,2013-04-10 20:50:00,
2013-04-10 13:55:00,59.0,32.0,30.09,NNE,31,8.0,15.0,36,0.00,,,0.00,Weather View 32 v70,2013-04-10 20:55:00,
2013-04-10 14:00:00,58.6,31.7,30.09,ENE,57,12.0,17.0,36,0.00,,,0.00,Weather View 32 v70,2013-04-10 21:00:00,
2013-04-10 14:05:00,59.0,32.0,30.06,North,8,12.0,17.0,36,0.00,,,0.00,Weather View 32 v70,2013-04-10 21:05:00,
2013-04-10 14:10:00,59.5,32.5,30.06,East,81,9.0,17.0,36,0.00,,,0.00,Weather View 32 v70,2013-04-10 21:10:00,
2013-04-10 14:15:00,59.9,32.8,30.06,ENE,60,10.0,17.0,36,0.00,,,0.00,Weather View 32 v70,2013-04-10 21:15:00,
2013-04-10 14:20:00,60.1,33.0,30.09,ENE,75,20.0,20.0,36,0.00,,,0.00,Weather View 32 v70,2013-04-10 21:20:00,
2013-04-10 14:25:00,59.4,32.3,30.09,ENE,70,11.0,20.0,36,0.00,,,0.00,Weather View 32 v70,2013-04-10 21:25:00,
2013-04-10 14:30:00,59.2,32.2,30.09,NE,51,10.0,20.0,36,0.00,,,0.00,Weather View 32 v70,2013-04-10 21:30:00,
2013-04-10 14:35:00,58.6,31.7,30.09,East,80,10.0,20.0,36,0.00,,,0.00,Weather View 32 v70,2013-04-10 21:35:00,
2013-04-10 14:40:00,58.5,31.5,30.09,NE,37,5.0,20.0,36,0.00,,,0.00,Weather View 32 v70,2013-04-10 21:40:00,
2013-04-10 14:45:00,58.5,31.5,30.09,NE,36,11.0,20.0,36,0.00,,,0.00,Weather View 32 v70,2013-04-10 21:45:00,
2013-04-10 14:50:00,58.5,31.5,30.09,ENE,60,6.0,20.0,36,0.00,,,0.00,Weather View 32 v70,2013-04-10 21:50:00,
2013-04-10 14:55:00,58.6,31.7,30.09,ENE,76,6.0,20.0,36,0.00,,,0.00,Weather View 32 v70,2013-04-10 21:55:00,
2013-04-10 15:00:00,58.1,31.2,30.09,NE,45,9.0,20.0,36,0.00,,,0.00,Weather View 32 v70,2013-04-10 22:00:00,
2013-04-10 15:05:00,57.9,31.1,30.09,North,357,4.0,20.0,36,0.00,,,0.00,Weather View 32 v70,2013-04-10 22:05:00,
2013-04-10 15:10:00,57.6,30.8,30.09,East,83,4.0,20.0,36,0.00,,,0.00,Weather View 32 v70,2013-04-10 22:10:00,
2013-04-10 15:15:00,57.6,30.8,30.09,ENE,75,9.0,20.0,36,0.00,,,0.00,Weather View 32 v70,2013-04-10 22:15:00,
2013-04-10 15:20:00,57.9,31.1,30.12,ENE,58,6.0,20.0,36,0.00,,,0.00,Weather View 32 v70,2013-04-10 22:20:00,
2013-04-10 15:25:00,58.6,31.7,30.12,East,81,14.0,20.0,36,0.00,,,0.00,Weather View 32 v70,2013-04-10 22:25:00,
2013-04-10 15:30:00,56.8,30.1,30.12,ENE,64,8.0,20.0,36,0.00,,,0.00,Weather View 32 v70,2013-04-10 22:30:00,
2013-04-10 15:35:00,56.1,29.5,30.12,East,90,6.0,20.0,36,0.00,,,0.00,Weather View 32 v70,2013-04-10 22:35:00,
2013-04-10 15:40:00,56.3,29.6,30.12,NE,42,6.0,20.0,36,0.00,,,0.00,Weather View 32 v70,2013-04-10 22:40:00,
2013-04-10 15:45:00,56.5,29.8,30.12,NNE,21,8.0,20.0,36,0.00,,,0.00,Weather View 32 v70,2013-04-10 22:45:00,
2013-04-10 15:50:00,56.3,29.6,30.12,NE,39,5.0,20.0,36,0.00,,,0.00,Weather View 32 v70,2013-04-10 22:50:00,
2013-04-10 15:55:00,55.9,29.3,30.12,NE,39,17.0,20.0,36,0.00,,,0.00,Weather View 32 v70,2013-04-10 22:55:00,
2013-04-10 16:00:00,55.4,28.8,30.12,NE,36,11.0,20.0,36,0.00,,,0.00,Weather View 32 v70,2013-04-10 23:00:00,
2013-04-10 16:05:00,55.4,28.8,30.12,NNE,27,13.0,21.0,36,0.00,,,0.00,Weather View 32 v70,2013-04-10 23:05:00,
2013-04-10 16:10:00,55.6,29.0,30.12,ENE,60,9.0,21.0,36,0.00,,,0.00,Weather View 32 v70,2013-04-10 23:10:00,
2013-04-10 16:15:00,54.9,29.0,30.12,ENE,71,8.0,21.0,37,0.00,,,0.00,Weather View 32 v70,2013-04-10 23:15:00,
2013-04-10 16:20:00,55.2,29.3,30.12,NE,45,15.0,21.0,37,0.00,,,0.00,Weather View 32 v70,2013-04-10 23:20:00,
2013-04-10 16:25:00,54.5,28.7,30.12,NE,45,17.0,21.0,37,0.00,,,0.00,Weather View 32 v70,2013-04-10 23:25:00,
2013-04-10 16:30:00,54.3,28.5,30.12,North,353,20.0,21.0,37,0.00,,,0.00,Weather View 32 v70,2013-04-10 23:30:00,
2013-04-10 16:35:00,54.5,28.7,30.12,ENE,77,6.0,23.0,37,0.00,,,0.00,Weather View 32 v70,2013-04-10 23:35:00,
2013-04-10 16:40:00,54.5,28.7,30.12,NNE,16,11.0,23.0,37,0.00,,,0.00,Weather View 32 v70,2013-04-10 23:40:00,
2013-04-10 16:45:00,54.5,28.7,30.12,ENE,72,8.0,23.0,37,0.00,,,0.00,Weather View 32 v70,2013-04-10 23:45:00,
2013-04-10 16:50:00,54.1,27.7,30.12,North,2,17.0,23.0,36,0.00,,,0.00,Weather View 32 v70,2013-04-10 23:50:00,
2013-04-10 16:55:00,54.1,28.4,30.12,NE,44,10.0,23.0,37,0.00,,,0.00,Weather View 32 v70,2013-04-10 23:55:00,
2013-04-10 17:00:00,54.7,28.9,30.12,NE,49,11.0,23.0,37,0.00,,,0.00,Weather View 32 v70,2013-04-11 00:00:00,
2013-04-10 17:05:00,55.0,29.2,30.12,NNE,33,9.0,23.0,37,0.00,,,0.00,Weather View 32 v70,2013-04-11 00:05:00,
2013-04-10 17:10:00,54.7,28.2,30.12,NE,34,14.0,23.0,36,0.00,,,0.00,Weather View 32 v70,2013-04-11 00:10:00,
2013-04-10 17:15:00,54.3,27.9,30.12,NE,34,19.0,23.0,36,0.00,,,0.00,Weather View 32 v70,2013-04-11 00:15:00,
2013-04-10 17:20:00,55.0,29.2,30.12,ENE,67,11.0,23.0,37,0.00,,,0.00,Weather View 32 v70,2013-04-11 00:20:00,
2013-04-10 17:25:00,56.1,29.5,30.12,East,86,7.0,23.0,36,0.00,,,0.00,Weather View 32 v70,2013-04-11 00:25:00,
2013-04-10 17:30:00,56.1,29.5,30.12,NE,50,6.0,23.0,36,0.00,,,0.00,Weather View 32 v70,2013-04-11 00:30:00,
2013-04-10 17:35:00,55.6,29.0,30.12,ENE,71,6.0,23.0,36,0.00,,,0.00,Weather View 32 v70,2013-04-11 00:35:00,
2013-04-10 17:41:00,54.7,28.9,30.12,ENE,67,11.0,23.0,37,0.00,,,0.00,Weather View 32 v70,2013-04-11 00:41:00,
2013-04-10 17:46:00,54.1,28.4,30.12,NE,38,5.0,23.0,37,0.00,,,0.00,Weather View 32 v70,2013-04-11 00:46:00,
2013-04-10 17:51:00,53.8,28.1,30.12,ENE,71,11.0,23.0,37,0.00,,,0.00,Weather View 32 v70,2013-04-11 00:51:00,
2013-04-10 17:56:00,53.1,28.1,30.12,NE,49,11.0,23.0,38,0.00,,,0.00,Weather View 32 v70,2013-04-11 00:56:00,
2013-04-10 18:01:00,52.0,27.1,30.12,NE,54,6.0,23.0,38,0.00,,,0.00,Weather View 32 v70,2013-04-11 01:01:00,
2013-04-10 18:06:00,52.0,27.1,30.15,NNE,19,11.0,23.0,38,0.00,,,0.00,Weather View 32 v70,2013-04-11 01:06:00,
2013-04-10 18:11:00,53.4,28.4,30.15,NE,53,5.0,23.0,38,0.00,,,0.00,Weather View 32 v70,2013-04-11 01:11:00,
2013-04-10 18:16:00,54.0,28.2,30.15,NNE,22,15.0,21.0,37,0.00,,,0.00,Weather View 32 v70,2013-04-11 01:16:00,
2013-04-10 18:21:00,52.3,27.4,30.15,NE,41,8.0,21.0,38,0.00,,,0.00,Weather View 32 v70,2013-04-11 01:21:00,
2013-04-10 18:26:00,51.3,26.5,30.15,NE,41,8.0,21.0,38,0.00,,,0.00,Weather View 32 v70,2013-04-11 01:26:00,
2013-04-10 18:31:00,50.4,25.7,30.15,NE,44,11.0,22.0,38,0.00,,,0.00,Weather View 32 v70,2013-04-11 01:31:00,
2013-04-10 18:36:00,49.8,25.2,30.15,ENE,61,6.0,22.0,38,0.00,,,0.00,Weather View 32 v70,2013-04-11 01:36:00,
2013-04-10 18:41:00,49.6,25.7,30.15,NNE,14,10.0,22.0,39,0.00,,,0.00,Weather View 32 v70,2013-04-11 01:41:00,
2013-04-10 18:46:00,49.5,25.5,30.15,ENE,65,7.0,22.0,39,0.00,,,0.00,Weather View 32 v70,2013-04-11 01:46:00,
2013-04-10 18:51:00,48.9,25.0,30.12,East,89,10.0,22.0,39,0.00,,,0.00,Weather View 32 v70,2013-04-11 01:51:00,
2013-04-10 18:56:00,48.4,24.5,30.12,ENE,57,6.0,22.0,39,0.00,,,0.00,Weather View 32 v70,2013-04-11 01:56:00,
2013-04-10 19:01:00,48.0,25.4,30.12,NNE,24,6.0,22.0,41,0.00,,,0.00,Weather View 32 v70,2013-04-11 02:01:00,
2013-04-10 19:06:00,47.7,25.1,30.15,ENE,71,8.0,22.0,41,0.00,,,0.00,Weather View 32 v70,2013-04-11 02:06:00,
2013-04-10 19:11:00,47.5,25.5,30.15,ENE,59,4.0,22.0,42,0.00,,,0.00,Weather View 32 v70,2013-04-11 02:11:00,
2013-04-10 19:16:00,47.3,25.3,30.15,North,10,8.0,22.0,42,0.00,,,0.00,Weather View 32 v70,2013-04-11 02:16:00,
2013-04-10 19:21:00,47.1,25.7,30.15,ENE,67,5.0,22.0,43,0.00,,,0.00,Weather View 32 v70,2013-04-11 02:21:00,
2013-04-10 19:26:00,46.9,25.6,30.15,ENE,76,4.0,22.0,43,0.00,,,0.00,Weather View 32 v70,2013-04-11 02:26:00,
2013-04-10 19:31:00,46.6,25.2,30.15,ENE,78,2.0,22.0,43,0.00,,,0.00,Weather View 32 v70,2013-04-11 02:31:00,
2013-04-10 19:36:00,46.2,25.5,30.15,NE,45,5.0,16.0,44,0.00,,,0.00,Weather View 32 v70,2013-04-11 02:36:00,
2013-04-10 19:41:00,46.0,25.3,30.15,NE,39,6.0,16.0,44,0.00,,,0.00,Weather View 32 v70,2013-04-11 02:41:00,
2013-04-10 19:46:00,45.9,25.1,30.15,NE,43,3.0,16.0,44,0.00,,,0.00,Weather View 32 v70,2013-04-11 02:46:00,
2013-04-10 19:51:00,45.7,25.0,30.15,ENE,59,7.0,13.0,44,0.00,,,0.00,Weather View 32 v70,2013-04-11 02:51:00,
2013-04-10 19:56:00,45.5,24.8,30.15,ENE,70,6.0,13.0,44,0.00,,,0.00,Weather View 32 v70,2013-04-11 02:56:00,
2013-04-10 20:02:00,45.5,24.8,30.15,East,84,6.0,13.0,44,0.00,,,0.00,Weather View 32 v70,2013-04-11 03:02:00,
2013-04-10 20:07:00,45.3,24.7,30.15,NNW,341,4.0,13.0,44,0.00,,,0.00,Weather View 32 v70,2013-04-11 03:07:00,
2013-04-10 20:12:00,45.0,24.9,30.15,East,100,4.0,13.0,45,0.00,,,0.00,Weather View 32 v70,2013-04-11 03:12:00,
2013-04-10 20:17:00,44.6,25.1,30.15,ENE,75,3.0,13.0,46,0.00,,,0.00,Weather View 32 v70,2013-04-11 03:17:00,
2013-04-10 20:22:00,44.4,25.4,30.18,ENE,77,4.0,10.0,47,0.00,,,0.00,Weather View 32 v70,2013-04-11 03:22:00,
2013-04-10 20:27:00,44.2,25.8,30.18,ENE,75,2.0,10.0,48,0.00,,,0.00,Weather View 32 v70,2013-04-11 03:27:00,
2013-04-10 20:32:00,44.1,25.1,30.18,East,82,3.0,10.0,47,0.00,,,0.00,Weather View 32 v70,2013-04-11 03:32:00,
2013-04-10 20:37:00,43.7,25.3,30.18,ESE,112,4.0,10.0,48,0.00,,,0.00,Weather View 32 v70,2013-04-11 03:37:00,
2013-04-10 20:42:00,43.3,24.9,30.18,ESE,104,3.0,10.0,48,0.00,,,0.00,Weather View 32 v70,2013-04-11 03:42:00,
2013-04-10 20:47:00,43.2,25.3,30.18,SE,135,5.0,10.0,49,0.00,,,0.00,Weather View 32 v70,2013-04-11 03:47:00,
2013-04-10 20:52:00,43.0,25.1,30.18,SE,124,0.0,10.0,49,0.00,,,0.00,Weather View 32 v70,2013-04-11 03:52:00,
2013-04-10 20:57:00,42.8,25.4,30.18,ESE,119,4.0,8.0,50,0.00,,,0.00,Weather View 32 v70,2013-04-11 03:57:00,
2013-04-10 21:00:00,42.8,25.4,30.18,ESE,116,4.0,8.0,50,0.00,,,0.00,Weather View 32 v70,2013-04-11 04:00:00,
2013-04-10 21:03:00,42.8,25.4,30.18,ESE,116,6.0,8.0,50,0.00,,,0.00,Weather View 32 v70,2013-04-11 04:03:00,
2013-04-10 21:08:00,42.6,25.7,30.18,SE,127,6.0,8.0,51,0.00,,,0.00,Weather View 32 v70,2013-04-11 04:08:00,
2013-04-10 21:13:00,42.4,25.6,30.18,SE,125,4.0,8.0,51,0.00,,,0.00,Weather View 32 v70,2013-04-11 04:13:00,
2013-04-10 21:15:00,42.3,25.4,30.18,ESE,113,3.0,8.0,51,0.00,,,0.00,Weather View 32 v70,2013-04-11 04:15:00,
2013-04-10 21:18:00,42.1,25.7,30.18,ESE,118,6.0,8.0,52,0.00,,,0.00,Weather View 32 v70,2013-04-11 04:18:00,
2013-04-10 21:23:00,41.9,25.5,30.18,ESE,119,5.0,8.0,52,0.00,,,0.00,Weather View 32 v70,2013-04-11 04:23:00,
2013-04-10 21:28:00,41.7,25.4,30.18,SE,125,4.0,8.0,52,0.00,,,0.00,Weather View 32 v70,2013-04-11 04:28:00,
2013-04-10 21:33:00,41.5,25.7,30.18,ESE,122,5.0,8.0,53,0.00,,,0.00,Weather View 32 v70,2013-04-11 04:33:00,
2013-04-10 21:38:00,41.2,25.3,30.18,ESE,115,0.0,8.0,53,0.00,,,0.00,Weather View 32 v70,2013-04-11 04:38:00,
2013-04-10 21:43:00,41.0,25.6,30.18,SSE,159,3.0,8.0,54,0.00,,,0.00,Weather View 32 v70,2013-04-11 04:43:00,
2013-04-10 21:48:00,40.6,25.7,30.18,SE,135,3.0,8.0,55,0.00,,,0.00,Weather View 32 v70,2013-04-11 04:48:00,
2013-04-10 21:53:00,40.5,25.5,30.18,SE,124,0.0,8.0,55,0.00,,,0.00,Weather View 32 v70,2013-04-11 04:53:00,
2013-04-10 21:58:00,40.3,24.9,30.18,SE,124,0.0,8.0,54,0.00,,,0.00,Weather View 32 v70,2013-04-11 04:58:00,
2013-04-10 22:03:00,39.4,23.7,30.18,SE,124,3.0,8.0,53,0.00,,,0.00,Weather View 32 v70,2013-04-11 05:03:00,
2013-04-10 22:08:00,38.8,23.6,30.18,NNW,343,5.0,8.0,54,0.00,,,0.00,Weather View 32 v70,2013-04-11 05:08:00,
2013-04-10 22:14:00,38.7,26.0,30.18,NNW,346,6.0,8.0,60,0.00,,,0.00,Weather View 32 v70,2013-04-11 05:14:00,
2013-04-10 22:15:00,38.8,26.1,30.18,NE,35,5.0,8.0,60,0.00,,,0.00,Weather View 32 v70,2013-04-11 05:15:00,
2013-04-10 22:19:00,39.4,25.4,30.18,NNE,18,4.0,8.0,57,0.00,,,0.00,Weather View 32 v70,2013-04-11 05:19:00,
2013-04-10 22:24:00,39.9,25.0,30.18,NNE,17,4.0,9.0,55,0.00,,,0.00,Weather View 32 v70,2013-04-11 05:24:00,
2013-04-10 22:29:00,40.3,24.9,30.18,NE,51,4.0,9.0,54,0.00,,,0.00,Weather View 32 v70,2013-04-11 05:29:00,
2013-04-10 22:34:00,40.1,24.3,30.18,NE,40,0.0,9.0,53,0.00,,,0.00,Weather View 32 v70,2013-04-11 05:34:00,
2013-04-10 22:39:00,39.7,24.4,30.18,NE,40,0.0,9.0,54,0.00,,,0.00,Weather View 32 v70,2013-04-11 05:39:00,
2013-04-10 22:44:00,39.2,23.9,30.18,NE,41,0.0,9.0,54,0.00,,,0.00,Weather View 32 v70,2013-04-11 05:44:00,
2013-04-10 22:49:00,38.7,23.9,30.18,NE,41,2.0,9.0,55,0.00,,,0.00,Weather View 32 v70,2013-04-11 05:49:00,
2013-04-10 22:54:00,38.1,23.8,30.18,NE,41,2.0,9.0,56,0.00,,,0.00,Weather View 32 v70,2013-04-11 05:54:00,
2013-04-10 22:59:00,37.6,23.3,30.18,NE,41,0.0,9.0,56,0.00,,,0.00,Weather View 32 v70,2013-04-11 05:59:00,
2013-04-10 23:04:00,37.0,23.2,30.18,NE,41,0.0,9.0,57,0.00,,,0.00,Weather View 32 v70,2013-04-11 06:04:00,
2013-04-10 23:09:00,36.5,22.7,30.18,NE,41,0.0,9.0,57,0.00,,,0.00,Weather View 32 v70,2013-04-11 06:09:00,
2013-04-10 23:14:00,35.8,22.0,30.18,NE,41,0.0,9.0,57,0.00,,,0.00,Weather View 32 v70,2013-04-11 06:14:00,
2013-04-10 23:15:00,35.8,22.0,30.18,NE,41,0.0,9.0,57,0.00,,,0.00,Weather View 32 v70,2013-04-11 06:15:00,
2013-04-10 23:19:00,35.2,21.9,30.18,NE,41,0.0,9.0,58,0.00,,,0.00,Weather View 32 v70,2013-04-11 06:19:00,
2013-04-10 23:24:00,34.5,21.3,30.18,NE,41,0.0,8.0,58,0.00,,,0.00,Weather View 32 v70,2013-04-11 06:24:00,
2013-04-10 23:29:00,34.0,21.1,30.18,NE,41,0.0,6.0,59,0.00,,,0.00,Weather View 32 v70,2013-04-11 06:29:00,
2013-04-10 23:34:00,33.4,20.6,30.18,NE,41,0.0,4.0,59,0.00,,,0.00,Weather View 32 v70,2013-04-11 06:34:00,
2013-04-10 23:39:00,32.7,24.0,30.18,SSE,157,3.0,5.0,70,0.00,,,0.00,Weather View 32 v70,2013-04-11 06:39:00,
2013-04-10 23:44:00,32.7,25.3,30.18,SSE,159,4.0,5.0,74,0.00,,,0.00,Weather View 32 v70,2013-04-11 06:44:00,
2013-04-10 23:49:00,33.1,25.7,30.18,SSE,159,3.0,5.0,74,0.00,,,0.00,Weather View 32 v70,2013-04-11 06:49:00,
2013-04-10 23:54:00,33.3,23.8,30.18,SSE,159,3.0,5.0,68,0.00,,,0.00,Weather View 32 v70,2013-04-11 06:54:00,
2013-04-10 23:59:00,32.7,23.3,30.18,SSE,159,3.0,5.0,68,0.00,,,0.00,Weather View 32 v70,2013-04-11 06:59:00,